Location: Marcé
(47.5801°N, 0.3280°W)
Time: 01:13:21
(UTC+02:00)

ZHUHAI-1 OHS-01 - Pass Details

Date: 12 July 2022
Orbit: 491 x 508 km, 97.2° (Epoch: 10 August)

Event Time Altitude Azimuth Distance (km) Brightness Sun altitude
Exits shadow 23:11:39 - 183° (S) 1,961 ? -10.2°
Reaches altitude 10° 23:12:17 10° 185° (S) 1,704 ? -10.2°
Maximum altitude 23:15:50 48° 261° (W) 664 ? -10.6°
Drops below altitude 10° 23:19:28 10° 337° (NNW) 1,729 ? -11.0°
Sets 23:21:37 0° 343° (NNW) 2,622 ? -11.2°
